TimeMDT,TemperatureF,Dew PointF,Humidity,Sea Level PressureIn,VisibilityMPH,Wind Direction,Wind SpeedMPH,Gust SpeedMPH,PrecipitationIn,Events,Conditions,WindDirDegrees,DateUTC
12:12 AM,60.8,50.0,68,30.12,10.0,South,8.1,-,N/A,Thunderstorm,Clear,170,2013-08-09 06:12:00
12:27 AM,60.8,50.0,68,30.13,10.0,SE,4.6,-,N/A,,Clear,140,2013-08-09 06:27:00
12:53 AM,57.9,50.0,75,30.00,10.0,SSE,6.9,-,N/A,,Clear,160,2013-08-09 06:53:00
1:53 AM,61.0,55.9,83,30.04,10.0,ENE,6.9,-,N/A,,Clear,70,2013-08-09 07:53:00
2:39 AM,62.6,50.0,63,30.18,10.0,ENE,8.1,-,N/A,,Mostly Cloudy,60,2013-08-09 08:39:00
2:53 AM,63.0,48.9,60,30.05,10.0,East,9.2,-,N/A,,Overcast,80,2013-08-09 08:53:00
3:53 AM,61.0,46.0,58,30.05,10.0,SE,4.6,-,N/A,,Mostly Cloudy,130,2013-08-09 09:53:00
4:53 AM,59.0,46.9,64,30.04,10.0,SSW,3.5,-,N/A,,Scattered Clouds,200,2013-08-09 10:53:00
5:53 AM,57.9,46.9,67,30.03,10.0,South,6.9,-,N/A,,Clear,170,2013-08-09 11:53:00
6:53 AM,57.0,50.0,77,30.07,10.0,North,9.2,-,N/A,,Clear,360,2013-08-09 12:53:00
7:53 AM,62.1,50.0,65,30.08,10.0,WNW,5.8,-,N/A,,Clear,290,2013-08-09 13:53:00
8:53 AM,66.0,48.9,54,30.09,10.0,NE,3.5,-,N/A,,Overcast,40,2013-08-09 14:53:00
9:53 AM,68.0,50.0,52,30.09,10.0,Calm,Calm,-,N/A,,Scattered Clouds,0,2013-08-09 15:53:00
10:53 AM,69.1,50.0,51,30.10,10.0,SE,4.6,-,N/A,,Mostly Cloudy,140,2013-08-09 16:53:00
11:53 AM,73.0,48.9,42,30.09,10.0,Variable,4.6,-,N/A,,Clear,0,2013-08-09 17:53:00
12:53 PM,77.0,50.0,39,30.07,10.0,SE,6.9,-,N/A,,Clear,130,2013-08-09 18:53:00
1:53 PM,77.0,48.9,37,30.06,10.0,East,5.8,-,N/A,,Partly Cloudy,90,2013-08-09 19:53:00
2:53 PM,77.0,52.0,42,30.05,10.0,NNE,3.5,-,N/A,,Scattered Clouds,20,2013-08-09 20:53:00
3:53 PM,77.0,52.0,42,30.04,10.0,North,5.8,-,N/A,,Scattered Clouds,360,2013-08-09 21:53:00
4:25 PM,75.2,53.6,47,30.16,10.0,NE,8.1,-,N/A,Thunderstorm,Mostly Cloudy,40,2013-08-09 22:25:00
4:53 PM,73.9,53.1,48,30.05,10.0,NE,4.6,-,N/A,Thunderstorm,Overcast,50,2013-08-09 22:53:00
5:18 PM,73.4,53.6,50,30.17,10.0,North,9.2,-,0.00,Rain,Light Rain,10,2013-08-09 23:18:00
5:53 PM,73.0,52.0,48,30.07,10.0,Variable,3.5,-,0.00,,Overcast,0,2013-08-09 23:53:00
6:15 PM,68.0,55.4,64,30.17,2.5,ESE,3.5,-,0.09,Rain-Thunderstorm,Heavy Rain,110,2013-08-10 00:15:00
6:28 PM,66.2,57.2,73,30.17,4.0,ENE,10.4,-,0.21,Rain,Rain,70,2013-08-10 00:28:00
6:53 PM,66.9,57.9,73,30.05,10.0,East,9.2,-,0.21,,Overcast,100,2013-08-10 00:53:00
7:53 PM,66.0,59.0,78,30.05,10.0,NNE,4.6,-,N/A,,Clear,20,2013-08-10 01:53:00
8:53 PM,64.0,60.1,87,30.07,10.0,Calm,Calm,-,N/A,,Clear,0,2013-08-10 02:53:00
9:53 PM,66.0,57.0,73,30.08,10.0,South,12.7,-,N/A,,Mostly Cloudy,170,2013-08-10 03:53:00
10:53 PM,63.0,55.9,78,30.07,10.0,South,17.3,-,N/A,,Clear,180,2013-08-10 04:53:00
11:53 PM,63.0,55.0,75,30.05,10.0,South,11.5,-,N/A,,Clear,170,2013-08-10 05:53:00